Weather in Podborov'ye

Russia / Saint-Petersburg and Leningrad Oblast     59°30′10″N   35°02′13″E
temp.,
°C
wind,
m/s
gust,
m/s
humid.,
%
clouds,
%
prec.,
mm/h
press.,
hPa
HPBL,
m
29 july, thu
thu2900:00+17ene2297100 1.4 100764
03:00+16ese2599100 1.6 1006155
06:00+17sw279895 3.5 1005345
09:00+20wsw3585100 3.8 1004558
12:00+22wsw4670100 0.4 1004806
15:00+26w573983 0.4 10021981
18:00+24w4851100 0.0 10011205
21:00+17wsw228476 0.2 100235
30 july, fri
fri3000:00+17sw26842 0.0 1001156
03:00+15wsw289741 0.1 1002157
06:00+16w289354 0.0 1001236
09:00+21wsw466037 0.0 1001814
12:00+23wsw474474 0.0 10021394
15:00+25w573564 0.0 10012584
18:00+22wsw374884 0.0 1000936
21:00+17ssw2469100 0.0 100082
31 july, sat
sat3100:00+15sw2581100 0.1 1000117
03:00+13s279083 0.1 998134
06:00+14sw41288100 0.2 997576
09:00+13ssw3897100 3.6 997593
12:00+16sw488587 0.4 998848
15:00+18wsw598310 2.2 9981051
18:00+18w410835 1.3 9991029
21:00+15wsw26920 1.4 1001142
1 august, sun
sun100:00+13wsw27970 0.0 1003133
03:00+12sw249562 0.0 100479
06:00+13ssw2587100 0.0 1005122
09:00+20ssw3668100 0.0 1004511
12:00+18ssw4988100 3.1 1003360
15:00+16s279746 7.1 1003313
18:00+20sw39810 1.0 10021062
21:00+16ssw28950 2.2 1003170
2 august, mon
mon200:00+14sw279585 0.0 1003129
03:00+13ssw289783 0.0 1004159
06:00+13sw2797100 0.0 1004200
09:00+17wsw388149 0.0 1004703
12:00+22wsw584425 0.0 10032114
15:00+23sw5740100 0.0 10032037
18:00+20wsw2652100 0.0 1003476
21:00+16wsw2268100 0.0 100329